Location: Unspecified
(45.4615°N, 74.0512°W)
Time: 11:53:49
(UTC-05:00)

CZ-3 Stage 3 - Visible Passes

Search period start: 22 February 2018 00:00
Search period end: 04 March 2018 00:00
Orbit: 436 x 34760 km, 31.0° (Epoch: 22 February)

Date Brightness Start Highest point End Pass type
(mag) Time Alt. Az. Time Alt. Az. Time Alt. Az.
22 Feb 7.0 08:25:18 10° S 12:05:10 26° SSE 12:22:22 10° ESE visible
25 Feb 7.0 08:01:56 10° S 11:55:57 27° SSE 12:13:14 10° ESE visible
28 Feb 7.0 07:39:37 10° S 11:46:44 29° SSE 12:04:06 10° ESE visible
03 Mar 7.0 07:18:13 10° S 11:37:31 30° SSE 11:54:56 10° ESE visible
